Location: Alma
(34.4195°N, 97.6123°W)
Time: 05:25:37
(UTC+00:00)

Hubble Space Telescope - Pass Details

Date: 01 June 2024
Orbit: 511 x 514 km, 28.5° (Epoch: 13 June)

Event Time Altitude Azimuth Distance (km) Brightness Sun altitude
Rises 02:05:57 0° 256° (WSW) 2,612 5.0 -5.9°
Reaches altitude 10° 02:08:19 10° 247° (WSW) 1,726 3.9 -6.3°
Maximum altitude 02:11:57 34° 181° (S) 847 1.5 -7.0°
Drops below altitude 10° 02:15:35 10° 115° (ESE) 1,724 2.7 -7.6°
Enters shadow 02:15:42 - 115° (ESE) 1,764 2.7 -7.6°
